Regional Weather Roundup
Issued by NWS Midland/Odessa, TX

Skip options and go directly to product.
Home | Oldest Version | Previous Version | Current Version | All | Graphics & Text | Save Text | Print | Product List | Glossary On

Skip product version selection by date and time.   
375
ASUS44 KMAF 280110
RWRMAF
MIDLAND AREA WEATHER ROUNDUP
NATIONAL WEATHER SERVICE MIDLAND TX
700 PM CST TUE JAN 27 2015

...IN SOUTHWEST TEXAS AND SOUTHEAST NEW MEXICO...

CITY           SKY/WX    TMP DP  RH WIND       PRES   REMARKS
ALPINE         PTCLDY    57  45  63 SW8       30.28S
ANDREWS        FAIR      61  33  34 SW5       30.17S
ARTESIA        CLEAR     59  39  47 S6        30.17R
BIG SPRING     CLEAR     61  32  33 SE5       30.17S
CARLSBAD       CLEAR     56  37  49 S6        30.15R
DRYDEN           N/A     68  41  37 E3        30.13S
FORT STOCKTON  CLEAR     61  42  49 E6        30.18R
GUAD PASS      CLEAR     57  39  51 W13       30.27R
HOBBS          CLEAR     61  34  36 CALM      30.18S
MARFA          PTCLDY    57  43  58 S6        30.27S
MIDLAND AIRPK  CLEAR     67  33  28 S5        30.17R
MIDLAND INTL   CLEAR     63  36  36 SW7       30.16R
ODESSA         CLEAR     63  33  32 SW5       30.17S
PECOS          CLEAR     62  43  50 E5        30.16R
PRESIDIO       FAIR      66  46  47 N6        30.17S
SEMINOLE       CLEAR     58  35  42 S8        30.17S
SNYDER         CLEAR    N/A N/A N/A S7        30.15S
WINK           CLEAR     64  32  30 SE5       30.15R
$$
...OTHER STATIONS IN TEXAS...

CITY           SKY/WX    TMP DP  RH WIND       PRES   REMARKS
ABILENE        CLEAR     66  39  37 S7        30.13R
AMARILLO       CLEAR     56  34  43 S9        30.12S
AUSTIN         PTCLDY    57  47  69 CALM      30.12R
BROWNSVILLE    CLEAR     64  47  53 S8        30.16S
CORPUS CHRISTI PTCLDY    64  47  53 SE9       30.13R
DALLAS FTW     MOCLDY    65  38  36 SE5       30.10S
DEL RIO        CLEAR     71  37  28 SE5       30.11S
EL PASO        PTCLDY    63  39  41 S3        30.20R
HOUSTON INT    PTCLDY    59  48  67 CALM      30.12R
LUBBOCK        PTCLDY    60  32  34 S8        30.14S
SAN ANGELO     PTCLDY    61  39  44 E3        30.13S
SAN ANTONIO    PTCLDY    73  36  25 S5        30.13R
WACO           PTCLDY    54  43  66 S5        30.12R
WICHITA FALLS  NOT AVBL
$$
...OTHER LOCATIONS IN NEW MEXICO...

CITY           SKY/WX    TMP DP  RH WIND       PRES   REMARKS
ALAMAGORDO     CLEAR     59  39  47 W3        30.22S
ALBUQUERQUE    PTCLDY    56  28  34 CALM      30.25R
CANNON AFB     CLEAR     55  34  44 SW8       30.15F
CLOVIS         PTCLDY    52  34  50 SW10      30.15S
HOLLOMAN AFB   CLEAR     56  43  60 NW6       30.20R
ROSWELL        PTCLDY    59  33  37 CALM      30.16S
RUIDOSO        PTCLDY    50  34  53 W3        30.31S
SANTA FE       CLEAR     50  32  50 SW3       30.23F
TRUTH OR CONSE PTCLDY    61  37  41 S5        30.21S
TUCUMCARI      CLEAR     55  37  50 S10       30.10S
$$

USA.gov is the U.S. government's official web portal to all federal, state and local government web resources and services.